This is the latest recevied weather packets stored in our database for station/object W0AKY-13. If no packets are shown the sender has not sent any weather packets the latest 10 day(s).
| Time | Temp. | Humidity | Pressure | Rain* | Wind** | Luminosity | Snow |
|---|---|---|---|---|---|---|---|
| 1787860266 | 27.22° C | 57% | 1021.8 hPa | 0 mm | - | 133 W/m² | - |
| 1787859961 | 27.78° C | 56% | 1021.9 hPa | 0 mm | - | 103 W/m² | - |
| 1787859656 | 28.89° C | 56% | 1022 hPa | 0 mm | - | 576 W/m² | - |
| 1787859355 | 28.89° C | 55% | 1022 hPa | 0 mm | - | 591 W/m² | - |
| 1787859052 | 27.78° C | 54% | 1021.9 hPa | 0 mm | - | 596 W/m² | - |
| 1787858747 | 27.78° C | 55% | 1022 hPa | 0 mm | - | 610 W/m² | - |
| 1787858443 | 27.78° C | 56% | 1022.2 hPa | 0 mm | - | 183 W/m² | - |
| 1787858142 | 27.78° C | 58% | 1022 hPa | 0 mm | - | 160 W/m² | - |
| 1787857838 | 28.33° C | 58% | 1022.2 hPa | 0 mm | - | 184 W/m² | - |
| 1787857534 | 29.44° C | 56% | 1022.2 hPa | 0 mm | - | 618 W/m² | - |
| 1787857233 | 29.44° C | 54% | 1022.3 hPa | 0 mm | - | 642 W/m² | - |
| 1787856927 | 28.89° C | 53% | 1022.3 hPa | 0 mm | - | 655 W/m² | - |
| 1787856627 | 28.33° C | 58% | 1022.2 hPa | 0 mm | - | 632 W/m² | - |
| 1787856321 | 28.33° C | 60% | 1022.2 hPa | 0 mm | - | 629 W/m² | - |
| 1787856018 | 28.33° C | 59% | 1022.3 hPa | 0 mm | - | 630 W/m² | - |
| 1787855717 | 28.33° C | 57% | 1022.5 hPa | 0 mm | - | 625 W/m² | - |
| 1787855412 | 28.33° C | 58% | 1022.5 hPa | 0 mm | - | 638 W/m² | - |
| 1787855108 | 27.78° C | 62% | 1022.4 hPa | 0 mm | - | 640 W/m² | - |
| 1787854805 | 27.22° C | 61% | 1022.4 hPa | 0 mm | - | 648 W/m² | - |
| 1787854501 | 27.78° C | 60% | 1022.7 hPa | 0 mm | - | 668 W/m² | - |
| 1787854197 | 28.33° C | 61% | 1022.5 hPa | 0 mm | - | 680 W/m² | - |
| 1787853892 | 28.33° C | 64% | 1022.6 hPa | 0 mm | - | 701 W/m² | - |
| 1787853590 | 27.22° C | 58% | 1022.4 hPa | 0 mm | - | 668 W/m² | - |
| 1787853285 | 27.78° C | 58% | 1022.8 hPa | 0 mm | - | 162 W/m² | - |
| 1787852985 | 27.78° C | 59% | 1022.5 hPa | 0 mm | - | 633 W/m² | - |
* Rain latest hour (hover to see other rain measurements)
** Current wind speed in m/s (hover to see current wind gust speed)